Location: Brunnen
(48.6541°N, 10.9920°E)
Time: 04:40:19
(UTC+00:00)

Terra - Pass Details

Date: 01 June 2020
Orbit: 701 x 703 km, 98.2° (Epoch: 14 July)

Event Time Altitude Azimuth Distance (km) Brightness Sun altitude
Exits shadow 22:23:03 12° 228° (SW) 2,051 3.9 -18.2°
Maximum altitude 22:25:57 19° 269° (W) 1,647 3.8 -18.3°
Drops below altitude 10° 22:29:21 10° 315° (NW) 2,181 5.2 -18.4°
Sets 22:32:14 0° 333° (NNW) 3,105 6.6 -18.5°
